This demonstration page uses our WeatherBlox Daily Observations layout. Learn more.

Hourly Observations for November 22, 2016

Temp ( °F °C ) Dew Point ( °F °C ) Humidity (%) Winds ( mph kmh ) Pressure ( in mb ) Visibility ( mi km ) Precip ( " mm )
12:54 am 00:54 Cloudy with Light Rain 42 5.6 34 1.1 73 73 ESE 10 17 29.91 1013 10 16.0934 0 0.0254
1:54 am 01:54 Cloudy 43 6.1 33 0.6 68 68 ESE 12 19 29.88 1012 10 16.0934 0.01 0.254
2:54 am 02:54 Cloudy with Rain 42 5.6 36 2.2 79 79 ESE 15 24 29.85 1011 5 8.0467 0.04 1.016
3:54 am 03:54 Cloudy with Light Rain 42 5.6 38 3.3 85 85 ESE 14 22 29.85 1011 10 16.0934 0.14 3.556
4:54 am 04:54 Cloudy 43 6.1 39 3.9 86 86 ESE 16 26 29.83 1010 10 16.0934 0 0.0254
5:54 am 05:54 Cloudy 43 6.1 39 3.9 86 86 ESE 14 22 29.83 1010 10 16.0934 0 0
6:23 am 06:23 Cloudy 43 6.1 40 4.4 89 89 SE 13 20 29.83 1010 10 16.0934 0 0
6:54 am 06:54 Cloudy 43 6.1 40 4.4 89 89 SE 12 19 29.83 1010 10 16.0934 0 0
7:29 am 07:29 Cloudy 44 6.7 40 4.4 85 85 ESE 13 20 29.83 1010 10 16.0934 0 0
7:49 am 07:49 Cloudy with Light Rain 45 7 41 5 87 87 ESE 15 24 29.83 1010 10 16.0934 0 0
7:54 am 07:54 Cloudy with Light Rain 44 6.7 41 5 89 89 ESE 18 30 29.8 1009 10 16.0934 0 0.0254
8:54 am 08:54 Cloudy with Light Rain 45 7.2 43 6.1 93 93 SSE 9 15 29.84 1011 9 14.48406 0.01 0.254
9:21 am 09:21 Cloudy 45 7.2 43 6.1 93 93 SE 12 19 29.85 1011 10 16.0934 0 0.0254
9:54 am 09:54 Cloudy with Light Rain 45 7.2 43 6.1 93 93 SE 7 11 29.83 1010 3 4.82802 0.02 0.508
10:25 am 10:25 Cloudy with Light Rain 45 7.2 43 6.1 93 93 SE 13 20 29.83 1010 10 16.0934 0.06 1.524
10:54 am 10:54 Cloudy with Light Rain 46 7.8 43 6.1 89 89 ESE 8 13 29.81 1009 8 12.87472 0.07 1.778
11:54 am 11:54 Cloudy 46 7.8 43 6.1 89 89 SE 9 15 29.82 1010 10 16.0934 0 0.0254
12:42 pm 12:42 Cloudy 46 8 45 7 93 93 ESE 7 11 29.83 1010 10 16.0934 0 0
12:54 pm 12:54 Cloudy 48 8.9 44 6.7 86 86 ESE 8 13 29.8 1009 10 16.0934 0 0
1:15 pm 13:15 Cloudy 47 8.3 44 6.7 90 90 ESE 9 15 29.8 1009 10 16.0934 0 0
1:54 pm 13:54 Cloudy 47 8.3 44 6.7 90 90 E 9 15 29.8 1009 10 16.0934 0 0
2:47 pm 14:47 Cloudy with Mist and Fog 47 8.3 45 7.2 93 93 E 6 9 29.8 1009 2.5 4.02335 0 0.0254
2:54 pm 14:54 Cloudy with Mist and Fog 47 8.3 45 7.2 93 93 E 6 9 29.8 1009 2.5 4.02335 0 0.0254
3:04 pm 15:04 Cloudy with Mist and Fog 46 8 45 7 93 93 E 9 15 29.83 1010 4 6.43736 0 0
3:54 pm 15:54 Cloudy 48 8.9 45 7.2 89 89 E 10 17 29.8 1009 8 12.87472 0 0
4:54 pm 16:54 Cloudy 47 8.3 44 6.7 90 90 ENE 7 11 29.82 1010 10 16.0934 0 0
5:54 pm 17:54 Cloudy 46 7.8 43 6.1 89 89 NNE 10 17 29.84 1011 8 12.87472 0 0
6:54 pm 18:54 Cloudy with Light Rain 44 6.7 43 6.1 96 96 N 13 20 29.87 1012 4 6.43736 0.05 1.27
7:54 pm 19:54 Cloudy with Light Rain 43 6.1 42 5.6 97 97 N 13 20 29.89 1012 4 6.43736 0.02 0.508
8:54 pm 20:54 Cloudy with Light Rain 42 5.6 41 5 96 96 N 12 19 29.91 1013 4 6.43736 0.02 0.508
9:54 pm 21:54 Cloudy with Mist and Fog 42 5.6 41 5 96 96 N 12 19 29.92 1013 6 9.65604 0 0.0254
10:52 pm 22:52 Cloudy with Mist and Fog 43 6 39 4 87 87 N 16 26 29.94 1014 5 8.0467 0 0
10:54 pm 22:54 Cloudy with Mist and Fog 42 5.6 41 5 96 96 N 15 24 29.94 1014 5 8.0467 0 0
11:03 pm 23:03 Cloudy with Mist and Fog 43 6 41 5 93 93 N 15 24 29.97 1015 4 6.43736 0 0
11:26 pm 23:26 Cloudy with Mist and Fog 43 6 39 4 87 87 NNW 15 24 29.97 1015 5 8.0467 0 0
11:54 pm 23:54 Cloudy 41 5 39 3.9 93 93 NNW 18 30 29.95 1014 7 11.26538 0 0

Powered by AerisWeather